FW4213 Weather Reports


Display with metric or nautical units.
time (UTC)temp
F
wind
direction
speed
MPH
gust
MPH
rain 1hr
in
rain 24hr
in
rain mn
in
humidity
%
barometer
mb
20260906093030 55 142 1.0 3.0 0.01 0.01 0.01 91 1018.0
20260906091529 55 157 1.0 2.0 0.01 0.01 0.00 90 1018.1
20260906090033 54 111 1.0 4.0 0.00 0.00 0.00 89 1018.0
20260906083034 55 145 3.0 7.0 0.00 0.00 0.00 86 1017.9
20260906081608 55 145 4.0 7.0 0.00 0.00 0.00 85 1017.9
20260906080037 55 139 5.0 7.0 0.00 0.00 0.00 85 1017.9
20260906074529 55 148 5.0 7.0 0.00 0.00 0.00 84 1017.9
20260906073032 56 140 4.0 7.0 0.00 0.00 0.00 84 1018.1
20260906071605 56 153 4.0 8.0 0.00 0.00 0.00 83 1018.1
20260906070034 56 148 5.0 7.0 0.00 0.00 0.00 83 1018.1
20260906064605 55 142 5.0 8.0 0.00 0.00 0.00 85 1018.2
20260906063107 55 143 6.0 9.0 0.00 0.00 0.00 85 1018.2
20260906060035 55 152 5.0 9.0 0.00 0.00 0.00 85 1018.3
20260906054537 56 149 6.0 9.0 0.00 0.00 0.00 84 1018.3
20260906050031 58 147 6.0 10.0 0.00 0.00 0.00 80 1018.5
20260906044535 58 150 6.0 11.0 0.00 0.00 0.00 80 1018.5
20260906043134 58 148 7.0 12.0 0.00 0.00 0.00 80 1018.4
20260906041541 58 149 6.0 9.0 0.00 0.00 0.00 80 1018.4
20260906033032 59 148 7.0 10.0 0.00 0.00 0.00 80 1017.9
20260906031533 60 147 7.0 11.0 0.00 0.00 0.00 80 1017.8
20260906024533 61 154 7.0 10.0 0.00 0.00 0.00 78 1017.7
20260906021532 65 143 4.0 9.0 0.00 0.00 0.00 68 1017.5
20260906020029 67 163 1.0 5.0 0.00 0.00 0.00 59 1017.5
20260906013031 67 250 0.0 3.0 0.00 0.00 0.00 58 1017.5
20260906011537 68 257 1.0 4.0 0.00 0.00 0.00 58 1017.6
20260906010036 68 179 2.0 5.0 0.00 0.00 0.00 59 1017.8
20260906003031 66 206 2.0 8.0 0.00 0.00 0.00 60 1018.1
20260906000028 68 233 1.0 5.0 0.00 0.00 0.00 53 1017.9
20260905234530 69 249 0.0 2.0 0.00 0.00 0.00 52 1017.7
20260905233035 70 243 1.0 3.0 0.00 0.00 0.00 52 1017.6
20260905231535 70 282 1.0 5.0 0.00 0.00 0.00 50 1017.6
20260905230035 72 265 2.0 7.0 0.00 0.00 0.00 48 1017.5
20260905224531 72 308 4.0 10.0 0.00 0.00 0.00 45 1017.4
20260905223035 71 323 5.0 9.0 0.00 0.00 0.00 45 1017.4
20260905220032 71 317 3.0 8.0 0.00 0.00 0.00 47 1017.7
20260905214536 70 332 4.0 7.0 0.00 0.00 0.00 50 1017.8
20260905213109 70 298 2.0 6.0 0.00 0.00 0.00 51 1018.0
20260905211533 69 315 2.0 7.0 0.00 0.00 0.00 51 1018.0
20260905210034 69 302 1.0 4.0 0.00 0.00 0.00 51 1018.2
20260905204531 69 294 1.0 4.0 0.00 0.00 0.00 51 1018.2
20260905201532 68 308 3.0 7.0 0.00 0.00 0.00 56 1018.4
20260905194530 67 308 3.0 8.0 0.00 0.00 0.00 57 1018.7
20260905193108 66 314 2.0 8.0 0.00 0.00 0.00 58 1018.8
20260905191532 65 5 3.0 7.0 0.00 0.00 0.00 61 1019.1
20260905183034 63 337 3.0 7.0 0.00 0.00 0.00 68 1019.7
20260905181536 62 305 1.0 4.0 0.00 0.00 0.00 72 1019.9
20260905180034 60 348 1.0 5.0 0.00 0.00 0.00 79 1020.1
20260905174534 59 339 2.0 6.0 0.00 0.00 0.00 82 1020.2
20260905173031 59 347 1.0 5.0 0.00 0.00 0.00 83 1020.2
20260905171534 58 327 2.0 5.0 0.00 0.00 0.00 84 1020.2
20260905164531 57 352 1.0 3.0 0.00 0.00 0.00 86 1020.2
20260905163034 57 179 0.0 2.0 0.00 0.00 0.00 86 1020.1
20260905161528 56 135 0.0 1.0 0.00 0.00 0.00 87 1020.0
20260905154531 55 151 3.0 4.0 0.00 0.00 0.00 89 1020.1
20260905151536 53 149 3.0 4.0 0.00 0.00 0.00 92 1020.0
20260905150031 53 149 2.0 4.0 0.00 0.00 0.00 93 1020.0
20260905144534 52 139 2.0 3.0 0.00 0.00 0.00 93 1019.9
20260905143030 52 140 2.0 6.0 0.00 0.00 0.00 92 1019.9
20260905141533 52 145 5.0 9.0 0.00 0.00 0.00 92 1019.7
20260905140031 52 151 5.0 7.0 0.00 0.00 0.00 93 1019.6
20260905134540 52 142 5.0 7.0 0.00 0.01 0.00 93 1019.4
20260905133033 52 149 5.0 8.0 0.00 0.01 0.00 93 1019.3
20260905131534 52 136 4.0 8.0 0.00 0.01 0.00 93 1019.3
20260905130035 52 135 3.0 5.0 0.00 0.01 0.00 93 1019.2
20260905124537 53 136 3.0 5.0 0.00 0.01 0.00 93 1019.2
20260905120030 53 145 4.0 7.0 0.00 0.01 0.00 93 1019.2
20260905113035 53 169 2.0 6.0 0.00 0.02 0.00 93 1019.0
20260905111534 53 150 3.0 6.0 0.00 0.02 0.00 93 1019.0
20260905104534 53 192 1.0 6.0 0.00 0.02 0.00 92 1019.0
20260905103041 54 209 0.0 2.0 0.00 0.02 0.00 91 1018.9
20260905103032 54 7 0.0 1.0 0.00 0.02 0.00 91 1018.9
20260905100144 55 15 0.0 2.0 0.00 0.02 0.00 90 1019.0
20260905094535 55 135 0.0 2.0 0.00 0.02 0.00 89 1019.1